weather.gov     
National Weather Service

Terminal Aerodrome Forecast
NWS Homepage
This page is being discontinued on March 12, 2014.
The same data is available at this site. Please update your bookmarks.
Thank you, and we apologize for the inconvenience.
Please send an email to SR-SRH.Webmaster@noaa.gov with any concerns.


Current Version
Previous Version:    01  02  03  04  05  06  07  08  09  10  11  12  13  14  15  16  17  18  19  20  21  22  23  24  25  26  27  
[Printable]
902
FTUS45 KPSR 251100
TAFIWA
TAF
KIWA 251124Z 2512/2612 10006KT P6SM SKC
     FM251500 15007KT P6SM SCT100
     FM251800 17008KT P6SM SCT080 BKN100
     FM252100 27007KT P6SM BKN080 BKN100
     FM260400 14005KT P6SM FEW080 SCT120
      AMD LTD TO CLD VIS AND WIND TIL 251300=


U.S. Dept. of Commerce
NOAA National Weather Service
1325 East West Highway
Silver Spring, MD 20910
E-mail: w-nws.webmaster@noaa.gov
Page last modified: May 16, 2007
NATIONAL WEATHER SERVICE: for Safety, for Work, for Fun - FOR LIFE